15min,AgWx,beryljct,423,23OCT2019:00:00:00,34.6,12.88,29.9,29.8,31.0,32.3,29.8,67,73,63,0.368,21.2,23.0,19.8,4.779,2.6,290,52,5.6,-0.00006,-0.00006,48.3,50.7,8,0,.,.,5.79,0.00,0.00
15min,AgWx,beryljct,423,23OCT2019:00:15:00,34.0,12.86,32.4,31.7,30.0,31.7,29.5,62,66,55,0.333,18.5,19.7,17.4,2.368,4.0,321,8.8,5.7,0.00001,0.00003,48.1,50.7,8,0,.,.,5.80,0.00,0.00
15min,AgWx,beryljct,423,23OCT2019:00:30:00,33.5,12.86,28.2,28.5,30.4,31.9,28.5,60,70,54,0.372,18.1,20.2,16.6,3.288,1.6,65,39,3.3,-0.00010,-0.00012,47.9,50.7,8,0,.,.,5.79,0.00,0.00
15min,AgWx,beryljct,423,23OCT2019:00:45:00,32.8,12.86,30.2,29.7,28.7,29.8,28.2,71,75,64,0.359,20.4,21.4,19.2,2.784,1.2,141,25,4.0,-0.00013,-0.00018,47.6,50.6,8,0,.,.,5.80,0.00,0.00
15min,AgWx,beryljct,423,23OCT2019:01:00:00,32.3,12.85,30.3,29.8,29.5,30.0,29.0,67,68,64,0.364,19.8,20.3,19.3,0.811,2.2,214,4.9,4.2,-0.00007,-0.00008,47.4,50.6,8,0,.,.,5.80,0.00,0.00
15min,AgWx,beryljct,423,23OCT2019:01:15:00,31.8,12.84,30.2,30.2,29.7,30.9,28.6,65,69,61,0.345,19.6,20.1,18.3,4.779,3.2,191,20,4.8,-0.00003,-0.00002,47.1,50.5,8,0,.,.,5.80,0.00,0.00
15min,AgWx,beryljct,423,23OCT2019:01:30:00,31.4,12.83,33.9,31.2,29.5,31.2,28.6,64,67,60,0.385,18.8,20.9,17.5,2.565,2.5,200,0.2,4.8,-0.00005,-0.00005,46.9,50.5,8,0,.,.,5.80,0.00,0.00
15min,AgWx,beryljct,423,23OCT2019:01:45:00,31.3,12.8,32.2,31.5,31.2,32.6,29.8,61,65,58,0.373,19.1,21.0,17.9,2.565,3.6,203,5.9,4.9,0.00000,0.00002,46.7,50.5,8,0,.,.,5.80,0.00,0.00
15min,AgWx,beryljct,423,23OCT2019:02:00:00,31.3,12.8,30.5,30.4,31.3,32.5,30.4,65,68,62,0.391,21.0,21.4,20.1,0,0.8,225,3.4,2.9,-0.00017,-0.00023,46.5,50.4,8,0,.,.,5.80,0.00,0.00
15min,AgWx,beryljct,423,23OCT2019:02:15:00,31.1,12.78,31.7,31.1,31.0,31.2,30.3,67,69,66,0.398,21.3,21.7,21.0,0,0.6,229,1.6,1.5,-0.00019,-0.00027,46.3,50.3,8,0,.,.,5.80,0.00,0.00
15min,AgWx,beryljct,423,23OCT2019:02:30:00,31.1,12.77,26.4,26.9,29.7,32.0,26.9,64,68,60,0.337,18.9,21.6,17.5,0.022,1.8,346,27,4.4,-0.00009,-0.00011,46.1,50.3,8,0,.,.,5.80,0.00,0.00
15min,AgWx,beryljct,423,23OCT2019:02:45:00,30.5,12.76,28.3,27.3,26.7,27.6,25.8,69,74,66,0.369,17.9,19.9,16.8,0.482,1.2,71,13,3.6,-0.00012,-0.00016,45.8,50.2,8,0,.,.,5.80,0.00,0.00
15min,AgWx,beryljct,423,23OCT2019:03:00:00,29.9,12.75,25.5,25.6,27.2,27.9,25.6,70,73,66,0.316,18.7,19.9,16.1,3.529,2.3,146,38,5.5,-0.00007,-0.00008,45.6,50.1,8,0,.,.,5.80,0.00,0.00
15min,AgWx,beryljct,423,23OCT2019:03:15:00,29.3,12.75,26.3,27.5,26.2,27.8,25.4,69,71,66,0.334,17.4,18.2,16.3,0.044,2.5,177,20,4.5,-0.00006,-0.00006,45.4,50.1,8,0,.,.,5.80,0.00,0.00
15min,AgWx,beryljct,423,23OCT2019:03:30:00,28.6,12.75,26.2,26.0,26.3,27.5,25.1,67,72,62,0.334,16.8,17.8,15.8,0.658,0.5,107,13,1.5,-0.00018,-0.00026,45.2,50.0,8,0,.,.,5.80,0.00,0.00
15min,AgWx,beryljct,423,23OCT2019:03:45:00,28.1,12.73,28.0,27.2,27.1,27.6,26.0,66,70,63,0.353,17.3,18.8,16.4,3.639,1.2,135,28,4.0,-0.00013,-0.00017,45.0,50.0,8,0,.,.,5.80,0.00,0.00
15min,AgWx,beryljct,423,23OCT2019:04:00:00,28.0,12.72,25.5,25.8,27.3,28.3,25.8,65,70,62,0.324,17.2,19.0,15.6,2.477,2.4,191,37,5.7,-0.00006,-0.00006,44.8,49.9,8,0,.,.,5.80,0.00,0.00
15min,AgWx,beryljct,423,23OCT2019:04:15:00,27.8,12.71,25.5,27.6,26.5,27.8,25.6,69,73,65,0.333,17.6,18.4,16.7,1.315,1.8,92,6.6,2.9,-0.00009,-0.00011,44.6,49.8,8,0,.,.,5.80,0.00,0.00
15min,AgWx,beryljct,423,23OCT2019:04:30:00,27.5,12.71,26.1,26.0,26.0,27.3,25.1,70,73,65,0.330,17.6,18.4,16.6,1.184,0.8,170,9.7,1.5,-0.00015,-0.00022,44.4,49.7,8,0,.,.,5.80,0.00,0.00
15min,AgWx,beryljct,423,23OCT2019:04:45:00,27.1,12.72,27.2,26.4,25.7,26.6,24.8,67,72,63,0.349,16.2,18.6,14.9,2.784,2.5,262,80,3.9,-0.00006,-0.00006,44.2,49.6,8,0,.,.,5.80,0.00,0.00
15min,AgWx,beryljct,423,23OCT2019:05:00:00,26.8,12.71,22.8,22.7,24.3,26.5,22.7,71,73,69,0.302,16.3,18.6,15.1,1.907,2.0,55,37,4.8,-0.00008,-0.00010,44.1,49.6,8,0,.,.,5.80,0.00,0.00
15min,AgWx,beryljct,423,23OCT2019:05:15:00,26.1,12.7,24.3,23.3,23.1,23.8,22.6,77,79,73,0.336,16.9,17.7,15.2,3.705,1.9,154,64,4.1,-0.00009,-0.00011,43.9,49.5,8,0,.,.,5.80,0.00,0.00
15min,AgWx,beryljct,423,23OCT2019:05:30:00,25.7,12.7,24.1,24.5,24.5,25.4,23.4,73,79,70,0.319,17.2,17.8,16.5,0.351,1.3,217,0.2,3.6,-0.00012,-0.00015,43.7,49.4,8,0,.,.,5.80,0.00,0.00
15min,AgWx,beryljct,423,23OCT2019:05:45:00,25.4,12.68,23.3,22.8,24.5,25.8,22.8,71,74,69,0.288,16.5,18.1,14.2,2.762,1.8,196,3.9,3.7,-0.00009,-0.00011,43.5,49.4,8,0,.,.,5.80,0.00,0.00
15min,AgWx,beryljct,423,23OCT2019:06:00:00,24.9,12.69,23.7,23.5,23.9,25.1,22.6,70,73,69,0.315,15.6,16.3,14.2,0.57,0.4,197,6.9,2.6,-0.00017,-0.00025,43.3,49.3,8,0,.,.,5.80,0.00,0.00
15min,AgWx,beryljct,423,23OCT2019:06:15:00,24.6,12.68,22.1,21.6,22.5,23.5,21.5,74,76,72,0.303,15.6,17.1,15.0,0,1.3,285,1.5,2.3,0.00005,0.00008,43.1,49.2,8,0,.,.,5.80,0.00,0.00
15min,AgWx,beryljct,423,23OCT2019:06:30:00,24.1,12.68,23.3,22.4,21.9,22.4,21.5,74,76,70,0.309,14.8,15.7,13.3,1.622,0.6,285,0.0,1.8,0.00003,0.00004,43.0,49.1,8,0,.,.,5.80,0.00,0.00
15min,AgWx,beryljct,423,23OCT2019:06:45:00,23.8,12.68,23.7,24.4,23.9,25.5,22.4,73,76,70,0.319,16.6,17.5,15.8,1.337,1.1,285,0.1,2.1,0.00005,0.00008,42.8,49.1,8,1,.,.,5.80,0.00,0.00
15min,AgWx,beryljct,423,23OCT2019:07:00:00,23.8,12.69,24.4,24.5,24.1,24.9,23.4,75,77,72,0.339,17.4,18.1,16.3,1.118,1.0,243,28,2.2,0.00006,0.00009,42.6,48.9,8,7,.,.,5.80,0.00,0.00
15min,AgWx,beryljct,423,23OCT2019:07:15:00,23.9,12.8,24.5,24.3,24.2,25.1,23.7,76,78,75,0.336,17.8,18.7,17.3,1.622,0.3,220,0.6,1.6,0.00011,0.00012,42.4,48.9,8,25,.,.,5.80,0.00,0.00
15min,AgWx,beryljct,423,23OCT2019:07:30:00,24.5,13.11,24.8,24.4,24.7,25.4,24.2,77,83,75,0.372,18.6,20.0,17.7,1.228,0.7,189,20,2.7,0.00028,0.00031,42.3,48.8,8,82,.,.,5.80,0.00,0.00
15min,AgWx,beryljct,423,23OCT2019:07:45:00,26.2,13.57,26.9,26.5,25.4,26.5,24.5,83,84,81,0.404,20.9,22.0,20.1,0.877,0.7,152,0.1,1.4,0.00039,0.00042,42.1,48.7,8,121,.,.,5.80,0.00,0.00
15min,AgWx,beryljct,423,23OCT2019:08:00:00,28.5,14.8,29.1,28.6,27.5,28.6,26.5,82,85,77,0.410,22.7,23.2,22.0,0.943,0.9,152,0.0,1.6,0.00054,0.00059,41.9,48.6,8,164,.,.,5.80,0.00,0.00
15min,AgWx,beryljct,423,23OCT2019:08:15:00,31.1,14.75,31.3,31.2,30.0,31.2,28.6,73,77,70,0.417,22.4,23.3,21.2,2.324,1.6,152,1.0,2.5,0.00073,0.00082,41.8,48.6,8,209,.,.,5.80,0.00,0.00
15min,AgWx,beryljct,423,23OCT2019:08:30:00,33.9,14.69,34.6,34.2,32.8,34.3,31.2,66,71,63,0.421,22.8,23.7,21.6,2.214,2.0,144,4.8,2.7,0.00096,0.00110,41.7,48.5,8,255,.,.,5.80,0.00,0.00
15min,AgWx,beryljct,423,23OCT2019:08:45:00,36.9,14.73,37.4,37.2,35.6,37.2,34.2,60,63,57,0.443,23.1,24.6,22.2,2.039,2.1,132,4.6,2.8,0.00121,0.00139,41.6,48.4,8,302,.,.,5.80,0.00,0.00
15min,AgWx,beryljct,423,23OCT2019:09:00:00,39.9,14.59,40.3,40.3,38.8,40.3,37.1,56,59,52,0.447,24.5,25.7,23.5,2.674,2.5,131,8.8,3.8,0.00148,0.00172,41.5,48.3,8,347,.,.,5.80,0.00,0.00
15min,AgWx,beryljct,423,23OCT2019:09:15:00,42.9,14.59,42.8,42.9,41.4,42.9,40.3,50,53,48,0.452,24.2,25.0,23.3,1.052,2.1,130,11,3.6,0.00176,0.00202,41.5,48.2,8,393,.,.,5.79,0.00,0.00
15min,AgWx,beryljct,423,23OCT2019:09:30:00,46.1,14.5,44.9,44.9,44.2,45.6,42.8,47,49,44,0.442,25.1,27.5,24.1,0.022,0.5,117,3.6,2.2,0.00200,0.00218,41.6,48.1,8,438,.,.,5.79,0.00,0.00
15min,AgWx,beryljct,423,23OCT2019:09:45:00,49.7,14.47,46.9,47.3,46.6,47.6,44.9,42,45,40,0.471,24.9,26.9,23.0,1.359,0.5,75,7.8,2.3,0.00228,0.00248,41.7,48.1,8,482,.,.,5.79,0.00,0.00
15min,AgWx,beryljct,423,23OCT2019:10:00:00,52.9,14.43,49.9,50.5,49.1,50.5,47.3,39,43,36,0.489,25.2,26.6,23.8,4.297,2.3,32,22,4.7,0.00268,0.00308,41.8,48.0,8,530,.,.,5.78,0.00,0.00
15min,AgWx,beryljct,423,23OCT2019:10:15:00,55.2,13.96,51.0,51.5,51.2,52.0,50.4,38,41,36,0.472,26.6,28.7,25.3,3.157,4.2,54,14,7.2,0.00291,0.00351,42.0,47.9,8,534,.,.,5.78,0.00,0.00
15min,AgWx,beryljct,423,23OCT2019:10:30:00,56.4,13.95,52.4,52.1,52.2,52.5,51.4,36,38,34,0.459,26.2,27.5,24.8,3.398,4.9,42,15,7.3,0.00295,0.00363,42.3,47.8,8,516,.,.,5.78,0.00,0.00
15min,AgWx,beryljct,423,23OCT2019:10:45:00,57.2,13.94,54.3,54.2,53.2,54.3,52.0,36,40,35,0.542,27.2,30.4,25.0,7.322,5.9,53,15,8.8,0.00335,0.00414,42.7,47.7,8,593,.,.,5.78,0.00,0.00
15min,AgWx,beryljct,423,23OCT2019:11:00:00,58.1,13.9,55.5,55.6,54.7,55.7,54.0,38,41,36,0.578,29.4,31.4,27.6,7.848,6.8,68,15,10.5,0.00362,0.00451,43.1,47.7,8,630,.,.,5.77,0.00,0.00
15min,AgWx,beryljct,423,23OCT2019:11:15:00,59.1,13.86,56.7,57.3,56.4,57.4,55.4,37,39,35,0.595,30.4,32.7,28.4,11.9,9.4,60,10,14.6,0.00389,0.00500,43.5,47.6,8,646,.,.,5.77,0.00,0.00
15min,AgWx,beryljct,423,23OCT2019:11:30:00,60.1,13.87,59.3,57.9,57.5,58.1,57.0,36,39,34,0.589,31.0,33.3,28.8,8.99,9.3,60,14,13.5,0.00404,0.00519,44.0,47.6,8,662,.,.,5.77,0.00,0.00
15min,AgWx,beryljct,423,23OCT2019:11:45:00,61.1,13.84,60.0,59.0,58.4,59.1,57.9,35,37,32,0.588,30.5,32.4,28.6,7.519,7.9,58,16,11.9,0.00410,0.00519,44.5,47.6,8,673,.,.,5.77,0.00,0.00
15min,AgWx,beryljct,423,23OCT2019:12:00:00,62.0,13.86,59.8,59.7,59.2,59.7,58.7,34,37,32,0.586,31.2,33.4,29.3,14.82,8.8,59,15,14.8,0.00424,0.00541,45.0,47.5,8,681,.,.,5.76,0.00,0.00
15min,AgWx,beryljct,423,23OCT2019:12:15:00,62.7,13.82,60.6,59.7,59.8,60.4,59.3,33,36,32,0.591,30.8,33.1,29.3,6.862,7.4,56,17,12.3,0.00429,0.00540,45.5,47.5,8,690,.,.,5.76,0.00,0.00
15min,AgWx,beryljct,423,23OCT2019:12:30:00,63.4,13.78,60.7,61.0,60.6,61.4,59.8,33,37,28,0.515,31.3,34.2,27.8,6.138,7.2,61,21,13.1,0.00432,0.00541,46.0,47.5,8,689,.,.,5.76,0.00,0.00
15min,AgWx,beryljct,423,23OCT2019:12:45:00,64.4,13.79,61.0,61.4,61.6,62.3,60.9,30,34,26,0.604,30.0,33.8,26.2,7.958,7.8,43,24,14.5,0.00442,0.00562,46.6,47.5,8,683,.,.,5.75,0.00,0.00
15min,AgWx,beryljct,423,23OCT2019:13:00:00,65.1,13.76,62.2,62.0,61.6,62.3,60.8,30,34,26,0.577,29.7,33.3,26.1,8.4,7.4,49,26,10.9,0.00435,0.00552,47.2,47.5,8,673,.,.,5.75,0.00,0.00
15min,AgWx,beryljct,423,23OCT2019:13:15:00,65.6,13.76,61.4,62.4,62.3,63.2,61.6,28,32,25,0.509,29.0,31.9,26.0,11.44,11.1,63,25,17.5,0.00460,0.00615,47.8,47.6,8,663,.,.,5.75,0.00,0.00
15min,AgWx,beryljct,423,23OCT2019:13:30:00,66.0,13.73,61.9,62.4,62.3,62.8,61.7,26,29,24,0.525,27.3,29.5,25.3,14.4,8.9,34,19,17.1,0.00441,0.00579,48.4,47.6,8,648,.,.,5.75,0.00,0.00
15min,AgWx,beryljct,423,23OCT2019:13:45:00,66.6,13.71,63.8,62.5,62.6,63.1,62.0,28,30,25,0.544,28.8,31.3,26.6,8.68,9.8,49,11,15.0,0.00440,0.00585,49.0,47.7,8,633,.,.,5.75,0.00,0.00
15min,AgWx,beryljct,423,23OCT2019:14:00:00,67.0,13.69,64.2,63.7,63.0,63.8,62.3,26,30,24,0.503,28.0,31.0,25.8,9.43,9.0,64,19,15.5,0.00425,0.00563,49.5,47.7,8,607,.,.,5.75,0.00,0.00
15min,AgWx,beryljct,423,23OCT2019:14:15:00,67.3,13.8,63.5,63.1,63.4,63.9,63.1,24,28,22,0.442,26.3,30.0,23.8,6.072,10.4,68,13,13.5,0.00421,0.00577,50.0,47.8,8,565,.,.,5.75,0.00,0.00
15min,AgWx,beryljct,423,23OCT2019:14:30:00,67.6,13.68,65.7,64.3,63.9,64.6,63.1,22,25,18,0.377,23.8,27.6,20.4,7.585,9.0,47,26,16.1,0.00407,0.00553,50.5,47.9,8,550,.,.,5.75,0.00,0.00
15min,AgWx,beryljct,423,23OCT2019:14:45:00,68.1,13.65,63.4,64.1,64.7,65.3,64.1,19,22,17,0.395,21.0,24.6,19.3,13.68,9.1,6.6,20,16.5,0.00400,0.00552,51.0,48.0,8,519,.,.,5.75,0.00,0.00
15min,AgWx,beryljct,423,23OCT2019:15:00:00,68.4,13.67,63.7,64.1,64.1,64.6,63.7,20,22,18,0.393,22.5,24.7,18.8,10.17,7.9,41,19,16.0,0.00355,0.00490,51.4,48.1,8,470,.,.,5.75,0.00,0.00
15min,AgWx,beryljct,423,23OCT2019:15:15:00,68.7,13.67,63.5,64.0,64.2,64.7,63.8,20,23,17,0.391,21.9,25.7,19.3,12.19,8.2,38,19,14.1,0.00343,0.00481,51.8,48.2,8,445,.,.,5.75,0.00,0.00
15min,AgWx,beryljct,423,23OCT2019:15:30:00,68.6,13.64,63.7,63.8,64.1,64.5,63.8,21,23,19,0.420,22.9,25.4,20.7,11.29,10.3,47,12,18.7,0.00346,0.00505,52.2,48.3,8,405,.,.,5.75,0.00,0.00
15min,AgWx,beryljct,423,23OCT2019:15:45:00,68.3,13.68,63.7,63.7,63.8,64.3,63.3,22,24,18,0.442,23.8,26.4,19.7,6.116,8.6,48,13,13.1,0.00300,0.00436,52.5,48.5,8,363,.,.,5.75,0.00,0.00
15min,AgWx,beryljct,423,23OCT2019:16:00:00,68.0,13.7,63.9,63.8,64.0,64.6,63.7,20,22,18,0.426,22.0,24.4,20.3,10.83,9.2,33,12,13.7,0.00287,0.00432,52.8,48.6,8,320,.,.,5.75,0.00,0.00
15min,AgWx,beryljct,423,23OCT2019:16:15:00,67.7,13.64,65.0,65.0,64.2,65.1,63.7,18,22,12,0.262,19.5,24.7,11.6,13.22,9.8,30,13,14.8,0.00275,0.00429,53.1,48.7,8,277,.,.,5.76,0.00,0.00
15min,AgWx,beryljct,423,23OCT2019:16:30:00,67.3,13.68,62.6,63.1,63.5,65.0,62.9,20,22,12,0.401,21.1,23.9,12.1,9.82,10.0,48,15,14.0,0.00249,0.00400,53.3,48.9,8,231,.,.,5.76,0.00,0.00
15min,AgWx,beryljct,423,23OCT2019:16:45:00,66.5,13.73,61.6,62.2,62.9,63.4,62.2,20,22,18,0.417,21.2,22.7,18.6,8.13,11.8,46,12,16.2,0.00245,0.00411,53.4,49.0,8,186,.,.,5.76,0.00,0.00
15min,AgWx,beryljct,423,23OCT2019:17:00:00,65.3,13.73,61.2,61.2,61.7,62.1,61.1,22,24,20,0.422,22.9,24.2,21.1,9.45,9.0,48,9.2,11.3,0.00104,0.00131,53.5,49.1,8,143,.,.,5.76,0.00,0.00
15min,AgWx,beryljct,423,23OCT2019:17:15:00,64.0,13.78,59.7,59.3,60.4,61.2,59.3,24,25,22,0.436,23.2,24.1,22.4,8.07,7.9,56,9.6,11.2,0.00086,0.00111,53.6,49.3,8,102,.,.,5.76,0.00,0.00
15min,AgWx,beryljct,423,23OCT2019:17:30:00,62.1,13.28,56.7,56.9,58.2,59.5,56.9,26,27,24,0.419,23.4,24.2,22.7,6.27,6.0,47,5.5,7.7,0.00058,0.00079,53.6,49.4,8,53,.,.,5.76,0.00,0.00
15min,AgWx,beryljct,423,23OCT2019:17:45:00,59.4,13.18,54.0,54.5,56.0,56.9,54.5,27,29,26,0.413,22.5,22.9,22.0,6.204,6.2,45,5.3,7.2,0.00048,0.00065,53.5,49.5,8,10,.,.,5.76,0.01,0.00
15min,AgWx,beryljct,423,23OCT2019:18:00:00,56.7,13.13,52.8,53.5,53.8,54.6,53.1,29,30,27,0.374,22.0,23.1,20.1,4.976,5.4,49,7.1,7.2,0.00036,0.00051,53.4,49.6,8,3,.,.,5.77,0.00,0.00
15min,AgWx,beryljct,423,23OCT2019:18:15:00,54.1,13.1,50.6,50.8,51.6,53.4,50.8,29,30,27,0.373,20.5,21.1,20.1,4.275,4.7,39,4.1,5.6,0.00028,0.00041,53.3,49.8,8,0,.,.,5.77,0.00,0.00
15min,AgWx,beryljct,423,23OCT2019:18:30:00,52.1,13.1,50.0,49.4,50.8,51.8,49.4,29,31,27,0.364,19.4,20.5,18.6,3.354,3.8,19,11,4.8,0.00020,0.00031,53.1,49.9,8,0,.,.,5.77,0.00,0.00
15min,AgWx,beryljct,423,23OCT2019:18:45:00,50.5,13.07,49.6,48.8,49.1,49.5,48.6,32,34,30,0.396,20.9,21.7,19.5,5.086,4.3,40,7.3,6.0,0.00021,0.00031,52.9,50.0,8,0,.,.,5.77,0.00,0.00
15min,AgWx,beryljct,423,23OCT2019:19:00:00,49.2,13.06,49.2,48.8,48.7,49.0,48.3,33,34,32,0.376,21.2,21.7,20.3,1.929,3.3,37,5.8,4.7,0.00012,0.00020,52.7,50.1,8,0,.,.,5.77,0.00,0.00
15min,AgWx,beryljct,423,23OCT2019:19:15:00,48.1,13.06,49.4,49.0,49.3,49.8,48.8,31,32,30,0.370,20.1,20.3,19.9,2.039,1.4,23,7.7,3.0,-0.00011,-0.00012,52.4,50.2,8,0,.,.,5.77,0.00,0.00
15min,AgWx,beryljct,423,23OCT2019:19:30:00,47.3,13.05,47.7,48.3,47.7,49.2,45.7,34,37,31,0.401,20.8,21.8,19.9,3.464,1.7,334,55,6.0,-0.00008,-0.00008,52.1,50.3,9,0,.,.,5.77,0.00,0.00
15min,AgWx,beryljct,423,23OCT2019:19:45:00,46.6,13.04,47.7,47.1,47.7,48.2,47.1,36,37,35,0.408,22.3,22.7,21.8,5.283,4.3,39,8.2,6.0,0.00019,0.00028,51.9,50.4,8,0,.,.,5.77,0.00,0.00
15min,AgWx,beryljct,423,23OCT2019:20:00:00,46.4,13.02,47.3,47.3,47.2,47.5,46.8,36,37,35,0.389,21.7,22.3,21.1,5.305,5.0,24,7.7,8.4,0.00023,0.00033,51.6,50.5,9,0,.,.,5.77,0.00,0.00
15min,AgWx,beryljct,423,23OCT2019:20:15:00,46.3,13.02,46.6,46.8,47.3,47.9,46.7,35,36,34,0.393,20.9,21.5,20.5,6.27,5.0,17,11,8.5,0.00024,0.00035,51.3,50.5,8,0,.,.,5.78,0.00,0.00
15min,AgWx,beryljct,423,23OCT2019:20:30:00,46.2,13,47.5,47.0,46.4,47.0,46.0,35,37,33,0.364,20.6,21.4,19.5,10.35,7.1,28,7.9,11.9,0.00035,0.00045,51.0,50.6,8,0,.,.,5.78,0.00,0.00
15min,AgWx,beryljct,423,23OCT2019:20:45:00,46.3,13,47.0,46.4,47.2,47.8,46.3,32,33,30,0.346,18.7,19.6,18.2,11.33,10.3,39,8.6,13.6,0.00051,0.00062,50.8,50.6,8,0,.,.,5.78,0.00,0.00
15min,AgWx,beryljct,423,23OCT2019:21:00:00,46.3,12.99,46.3,46.1,46.3,46.7,46.1,31,32,30,0.325,17.3,18.3,16.7,9.93,9.6,33,7.5,12.8,0.00048,0.00059,50.5,50.7,8,0,.,.,5.78,0.00,0.00
15min,AgWx,beryljct,423,23OCT2019:21:15:00,46.2,12.99,45.4,45.3,45.9,46.2,45.3,30,31,29,0.315,16.2,16.9,15.9,9.71,10.1,34,7.2,12.7,0.00050,0.00061,50.2,50.7,8,0,.,.,5.78,0.00,0.00
15min,AgWx,beryljct,423,23OCT2019:21:30:00,45.9,12.99,45.7,45.8,45.5,45.8,45.3,30,31,29,0.306,15.6,16.2,15.3,11.07,11.3,31,7.3,14.3,0.00053,0.00064,50.0,50.7,8,0,.,.,5.78,0.00,0.00
15min,AgWx,beryljct,423,23OCT2019:21:45:00,45.8,12.97,45.7,45.0,45.5,45.9,45.0,30,30,29,0.305,15.6,15.9,15.3,9.67,10.8,29,7.0,14.8,0.00052,0.00063,49.8,50.7,8,0,.,.,5.78,0.00,0.00
15min,AgWx,beryljct,423,23OCT2019:22:00:00,45.3,12.97,43.0,43.4,44.2,45.0,43.3,31,32,30,0.302,15.4,15.7,15.0,4.143,6.7,35,5.8,10.0,0.00034,0.00044,49.6,50.8,8,0,.,.,5.78,0.00,0.00
15min,AgWx,beryljct,423,23OCT2019:22:15:00,44.2,12.95,41.7,42.0,42.6,43.4,42.0,33,33,32,0.301,15.2,15.5,14.8,4.954,4.6,36,8.6,7.8,0.00020,0.00029,49.3,50.7,8,0,.,.,5.78,0.00,0.00
15min,AgWx,beryljct,423,23OCT2019:22:30:00,43.0,12.95,40.3,39.9,41.2,42.1,39.9,34,36,32,0.298,15.0,15.3,14.6,3.157,4.0,42,11,6.9,0.00015,0.00022,49.1,50.7,8,0,.,.,5.78,0.00,0.00
15min,AgWx,beryljct,423,23OCT2019:22:45:00,41.6,12.93,38.8,39.3,39.4,40.1,38.5,36,37,34,0.289,14.4,15.1,13.8,3.025,3.7,39,12,7.9,0.00011,0.00018,48.9,50.7,8,0,.,.,5.78,0.00,0.00
15min,AgWx,beryljct,423,23OCT2019:23:00:00,40.7,12.94,42.7,42.0,40.2,42.0,38.7,34,37,30,0.276,13.8,14.5,13.1,6.971,6.2,26,7.8,11.2,0.00026,0.00035,48.7,50.7,8,0,.,.,5.78,0.00,0.00
15min,AgWx,beryljct,423,23OCT2019:23:15:00,41.1,12.92,43.7,43.5,43.2,43.6,42.1,28,30,27,0.269,12.5,13.1,12.2,11.4,10.0,13,9.2,13.6,0.00047,0.00057,48.5,50.7,8,0,.,.,5.78,0.00,0.00
15min,AgWx,beryljct,423,23OCT2019:23:30:00,41.8,12.91,42.9,42.7,42.6,43.5,42.3,31,33,28,0.312,14.3,16.0,12.5,11.44,9.7,25,10,14.4,0.00043,0.00053,48.2,50.7,8,0,.,.,5.78,0.00,0.00
15min,AgWx,bigpiney,439,23OCT2019:00:00:00,39.4,12.61,36.1,36.1,37.5,38.6,36.1,50,52,48,0.370,20.3,20.5,19.9,7.322,8.4,308,8.5,12.3,0.00028,0.00034,39.1,40.0,43,0,0,0.0,5.47,0.00,0.00
15min,AgWx,bigpiney,439,23OCT2019:00:15:00,39.0,12.6,35.5,35.5,35.9,36.3,35.5,52,53,52,0.372,20.2,20.4,19.8,6.686,7.6,302,9.1,10.5,0.00023,0.00029,39.1,39.9,43,0,0,0.0,5.47,0.00,0.00
15min,AgWx,bigpiney,439,23OCT2019:00:30:00,38.5,12.59,37.8,37.4,36.4,37.5,35.3,52,53,50,0.381,20.4,20.7,20.0,10.72,10.6,294,11,15.4,0.00028,0.00034,39.1,40.0,43,0,0,0.0,5.47,0.00,0.00
15min,AgWx,bigpiney,439,23OCT2019:00:45:00,38.2,12.57,36.3,36.2,36.8,37.4,36.2,52,53,50,0.385,20.8,21.0,20.6,8.94,10.4,298,7.8,14.1,0.00029,0.00034,39.1,40.0,43,0,0,0.0,5.47,0.00,0.00
15min,AgWx,bigpiney,439,23OCT2019:01:00:00,38.0,12.57,35.5,35.3,35.7,36.2,35.3,54,55,53,0.378,20.7,20.9,20.4,8.33,9.3,298,8.4,16.5,0.00025,0.00030,39.0,39.9,43,0,0,0.0,5.47,0.00,0.00
15min,AgWx,bigpiney,439,23OCT2019:01:15:00,37.6,12.56,34.0,34.1,34.7,35.5,34.0,55,56,54,0.370,20.2,20.6,19.8,7.103,7.8,298,10,13.2,0.00021,0.00026,39.0,39.9,43,0,0,0.0,5.47,0.00,0.00
15min,AgWx,bigpiney,439,23OCT2019:01:30:00,37.0,12.56,32.4,31.7,32.6,34.1,31.5,58,60,56,0.362,19.5,20.0,19.2,6.007,5.5,310,7.2,7.2,0.00014,0.00018,39.0,40.0,43,0,0,0.0,5.47,0.00,0.00
15min,AgWx,bigpiney,439,23OCT2019:01:45:00,36.0,12.55,31.6,31.8,31.9,32.5,31.3,59,61,58,0.357,19.4,19.6,19.0,4.998,6.3,296,9.6,9.9,0.00015,0.00019,38.9,40.0,43,0,0,0.0,5.47,0.00,0.00
15min,AgWx,bigpiney,439,23OCT2019:02:00:00,35.1,12.54,31.8,31.5,31.1,32.0,30.1,61,62,59,0.359,19.1,19.6,18.6,6.664,6.3,283,6.3,8.5,0.00014,0.00017,38.9,40.0,43,0,0,0.0,5.47,0.00,0.00
15min,AgWx,bigpiney,439,23OCT2019:02:15:00,34.4,12.54,34.3,33.5,32.4,33.5,31.5,59,60,56,0.366,19.5,19.8,19.2,9.01,7.6,285,7.4,10.2,0.00017,0.00022,38.9,39.9,43,0,0,0.0,5.47,0.00,0.00
15min,AgWx,bigpiney,439,23OCT2019:02:30:00,34.1,12.52,32.7,33.0,33.1,33.5,32.7,57,58,56,0.364,19.5,19.7,19.3,7.125,7.8,298,9.1,12.4,0.00019,0.00024,38.9,40.0,43,0,0,0.0,5.47,0.00,0.00
15min,AgWx,bigpiney,439,23OCT2019:02:45:00,33.9,12.52,33.3,32.6,32.5,33.0,32.2,58,59,57,0.367,19.5,19.8,19.3,8.24,7.2,292,8.4,8.6,0.00017,0.00021,38.8,40.0,43,0,0,0.0,5.47,0.00,0.00
15min,AgWx,bigpiney,439,23OCT2019:03:00:00,33.8,12.51,32.7,32.6,32.9,33.2,32.6,58,59,58,0.368,19.8,20.0,19.7,7.125,7.7,289,7.7,10.0,0.00018,0.00022,38.8,40.0,43,0,0,0.0,5.47,0.00,0.00
15min,AgWx,bigpiney,439,23OCT2019:03:15:00,33.7,12.5,31.8,32.0,32.3,32.6,31.9,60,61,59,0.367,19.9,20.1,19.7,5.963,7.1,299,8.5,9.2,0.00016,0.00020,38.8,40.0,43,0,0,0.0,5.47,0.00,0.00
15min,AgWx,bigpiney,439,23OCT2019:03:30:00,33.4,12.5,31.4,31.1,31.1,31.9,30.7,62,63,60,0.369,19.7,20.0,19.4,6.73,6.5,294,9.0,8.3,0.00013,0.00017,38.8,40.0,43,0,0,0.0,5.47,0.00,0.00
15min,AgWx,bigpiney,439,23OCT2019:03:45:00,33.2,12.49,33.2,32.5,31.7,32.5,31.2,62,63,61,0.380,20.2,20.6,19.9,9.19,7.4,290,6.6,11.9,0.00015,0.00019,38.8,40.0,43,0,0,0.0,5.47,0.00,0.00
15min,AgWx,bigpiney,439,23OCT2019:04:00:00,33.3,12.47,34.6,34.3,33.2,34.3,32.5,60,61,59,0.395,21.0,21.5,20.5,7.958,9.4,297,7.7,13.8,0.00019,0.00023,38.7,40.0,43,0,0,0.0,5.47,0.00,0.00
15min,AgWx,bigpiney,439,23OCT2019:04:15:00,34.0,12.47,35.5,35.4,35.1,35.4,34.3,57,59,57,0.397,21.6,21.8,21.5,8.46,10.3,311,8.1,13.5,0.00023,0.00028,38.7,40.0,43,0,0,0.0,5.47,0.00,0.00
15min,AgWx,bigpiney,439,23OCT2019:04:30:00,34.9,12.46,34.8,34.5,35.1,35.4,34.5,57,58,56,0.392,21.4,21.6,21.2,6.62,8.6,315,8.0,11.2,0.00022,0.00026,38.7,40.0,43,0,0,0.0,5.47,0.00,0.00
15min,AgWx,bigpiney,439,23OCT2019:04:45:00,35.4,12.45,34.6,34.4,34.1,34.6,33.6,59,60,58,0.389,21.2,21.4,21.1,8.22,7.0,321,7.8,11.6,0.00018,0.00022,38.6,40.0,43,0,0,0.0,5.47,0.00,0.00
15min,AgWx,bigpiney,439,23OCT2019:05:00:00,35.6,12.44,33.0,32.9,33.7,34.4,32.9,59,61,58,0.385,21.0,21.1,20.8,4.669,6.7,306,10,11.1,0.00016,0.00021,38.6,40.0,43,0,0,0.0,5.47,0.00,0.00
15min,AgWx,bigpiney,439,23OCT2019:05:15:00,35.3,12.43,28.0,28.4,31.5,32.9,28.4,63,69,61,0.362,20.4,21.1,19.1,4.801,5.1,331,47,7.1,0.00011,0.00014,38.6,40.0,43,0,0,0.0,5.47,0.00,0.00
15min,AgWx,bigpiney,439,23OCT2019:05:30:00,34.3,12.42,26.8,26.7,27.3,28.3,26.6,73,77,69,0.378,20.0,20.4,19.4,2.806,4.0,41,8.3,6.9,0.00004,0.00006,38.6,40.1,43,0,0,0.0,5.47,0.00,0.00
15min,AgWx,bigpiney,439,23OCT2019:05:45:00,32.7,12.41,25.3,25.3,25.1,26.6,23.8,80,83,77,0.380,19.8,20.7,18.4,3.244,3.3,93,15,3.9,0.00000,0.00001,38.5,40.0,43,0,0,0.0,5.47,0.00,0.00
15min,AgWx,bigpiney,439,23OCT2019:06:00:00,31.1,12.4,25.9,25.6,25.4,25.7,25.0,83,83,81,0.391,20.9,21.3,20.1,0.855,2.4,108,12,3.4,-0.00002,-0.00002,38.5,39.9,43,0,0,0.0,5.47,0.00,0.00
15min,AgWx,bigpiney,439,23OCT2019:06:15:00,29.7,12.38,23.2,23.4,25.2,25.7,23.4,84,86,83,0.357,21.2,21.5,19.0,2.696,0.3,184,35,3.2,-0.00008,-0.00012,38.5,40.0,43,0,0,0.0,5.47,0.00,0.00
15min,AgWx,bigpiney,439,23OCT2019:06:30:00,28.4,12.37,18.7,21.3,23.4,24.1,21.2,87,89,84,0.337,20.1,21.1,17.5,5.13,1.8,228,8.3,5.8,-0.00004,-0.00005,38.4,40.1,43,0,0,0.0,5.47,0.00,0.00
15min,AgWx,bigpiney,439,23OCT2019:06:45:00,27.0,12.35,24.7,22.9,20.9,22.9,20.2,87,89,86,0.360,17.7,19.3,16.6,1.008,2.5,249,32,6.4,-0.00002,-0.00002,38.4,40.0,43,3,0,0.0,5.47,0.00,0.00
15min,AgWx,bigpiney,439,23OCT2019:07:00:00,26.0,12.35,25.9,25.3,24.5,25.6,23.0,79,86,74,0.342,19.0,19.6,18.1,1.929,1.1,324,28,3.8,-0.00028,-0.00028,38.4,40.0,43,13,0,0.0,5.47,0.00,0.00
15min,AgWx,bigpiney,439,23OCT2019:07:15:00,25.8,12.38,25.8,25.2,25.3,25.9,25.1,74,75,73,0.347,18.3,19.1,17.7,1.951,1.1,298,37,4.3,-0.00008,-0.00005,38.4,40.0,43,17,0,0.0,5.47,0.00,0.00
15min,AgWx,bigpiney,439,23OCT2019:07:30:00,26.1,12.39,25.9,26.0,25.6,26.0,25.3,74,75,73,0.348,18.3,18.8,18.0,2.696,0.6,321,38,4.1,0.00003,0.00005,38.3,39.9,43,28,0,0.0,5.47,0.00,0.00
15min,AgWx,bigpiney,439,23OCT2019:07:45:00,26.7,12.45,30.0,29.5,28.1,29.5,25.7,73,76,70,0.385,20.7,21.2,18.0,16.73,16.4,337,11,24.5,0.00041,0.00069,38.3,39.9,43,53,0,0.0,5.47,0.00,0.00
15min,AgWx,bigpiney,439,23OCT2019:08:00:00,28.2,12.52,30.9,30.3,30.0,30.3,29.5,67,71,65,0.375,20.4,21.2,19.8,22.45,18.9,332,8.7,24.5,0.00061,0.00100,38.3,39.9,43,63,0,0.0,5.47,0.00,0.00
15min,AgWx,bigpiney,439,23OCT2019:08:15:00,29.7,12.47,31.1,30.7,30.7,30.9,30.3,63,66,61,0.371,19.7,20.4,19.0,16.29,18.1,315,11,23.7,0.00071,0.00115,38.3,40.0,43,69,0,0.0,5.47,0.00,0.00
15min,AgWx,bigpiney,439,23OCT2019:08:30:00,31.0,12.52,32.3,31.7,31.2,31.8,30.7,63,65,61,0.368,20.2,20.6,19.7,14.6,14.4,308,8.6,20.0,0.00071,0.00111,38.3,40.0,43,88,0,0.0,5.47,0.00,0.00
15min,AgWx,bigpiney,439,23OCT2019:08:45:00,32.1,12.83,32.9,32.6,32.2,32.7,31.8,59,61,57,0.354,19.4,20.1,18.9,14.23,14.0,305,8.2,19.6,0.00087,0.00133,38.2,39.9,43,131,0,0.0,5.47,0.00,0.00